ANA583 RJOS-RJOA

Flight info

Callsign ANA583
Flight time 0h 23m
Altitude 14000
Route KTE
Aircraft B789/H-SDE1E2E3FGHIJ2J3J4J5M1RWXY/LB1D1

Departure

Time 2026-05-07 15:28
Airport Tokushima Awaodori Airport / JMSDF Tokushima Air Base (RJOS)

Arrival

Time 2026-05-07 15:51
Airport Hiroshima Airport (RJOA)
Time Latitude Longitude Altitude Speed Heading
2026-05-07 14:58 34.13370 134.61779 28 ft 0 kts 13°
2026-05-07 15:17 34.13369 134.61779 28 ft 1 kts 13°
2026-05-07 15:18 34.13346 134.61773 27 ft 4 kts 14°
2026-05-07 15:18 34.13320 134.61764 26 ft 4 kts 14°
2026-05-07 15:18 34.13300 134.61762 27 ft 3 kts 349°
2026-05-07 15:18 34.13277 134.61772 27 ft 4 kts 323°
2026-05-07 15:19 34.13258 134.61793 27 ft 3 kts 313°
2026-05-07 15:19 34.13255 134.61797 26 ft 12 kts 314°
2026-05-07 15:21 34.13262 134.61780 25 ft 3 kts 287°
2026-05-07 15:21 34.13262 134.61751 26 ft 4 kts 269°
2026-05-07 15:21 34.13258 134.61706 26 ft 7 kts 263°
2026-05-07 15:21 34.13263 134.61645 28 ft 8 kts 282°
2026-05-07 15:22 34.13277 134.61569 28 ft 10 kts 282°
2026-05-07 15:22 34.13294 134.61478 28 ft 12 kts 283°
2026-05-07 15:22 34.13314 134.61370 27 ft 14 kts 282°
2026-05-07 15:22 34.13336 134.61248 27 ft 16 kts 282°
2026-05-07 15:23 34.13361 134.61113 27 ft 17 kts 282°
2026-05-07 15:23 34.13389 134.60965 27 ft 19 kts 282°
2026-05-07 15:23 34.13418 134.60806 27 ft 20 kts 282°
2026-05-07 15:23 34.13449 134.60637 27 ft 21 kts 282°
2026-05-07 15:24 34.13482 134.60459 28 ft 22 kts 282°
2026-05-07 15:24 34.13517 134.60273 28 ft 23 kts 282°
2026-05-07 15:24 34.13553 134.60078 28 ft 24 kts 282°
2026-05-07 15:24 34.13590 134.59875 28 ft 25 kts 282°
2026-05-07 15:25 34.13601 134.59818 28 ft 0 kts 282°
2026-05-07 15:25 34.13602 134.59810 28 ft 6 kts 282°
2026-05-07 15:25 34.13616 134.59734 28 ft 11 kts 279°
2026-05-07 15:25 34.13589 134.59659 28 ft 10 kts 214°
2026-05-07 15:26 34.13575 134.59650 28 ft 0 kts 203°
2026-05-07 15:26 34.13547 134.59640 28 ft 7 kts 192°
2026-05-07 15:26 34.13490 134.59638 27 ft 8 kts 158°
2026-05-07 15:26 34.13459 134.59684 28 ft 7 kts 108°
2026-05-07 15:27 34.13456 134.59698 28 ft 0 kts 105°
2026-05-07 15:27 34.13445 134.59751 29 ft 29 kts 103°
2026-05-07 15:27 34.13331 134.60363 29 ft 121 kts 102°
2026-05-07 15:28 34.13115 134.61613 353 ft 158 kts 97°
2026-05-07 15:28 34.12931 134.62843 943 ft 150 kts 104°
2026-05-07 15:28 34.12423 134.63953 1345 ft 153 kts 152°
2026-05-07 15:28 34.11424 134.64069 1891 ft 152 kts 198°
2026-05-07 15:29 34.10532 134.63641 2869 ft 116 kts 209°
2026-05-07 15:29 34.09995 134.62888 3243 ft 132 kts 250°
2026-05-07 15:29 34.09884 134.61730 3566 ft 144 kts 268°
2026-05-07 15:29 34.09880 134.60503 4052 ft 151 kts 268°
2026-05-07 15:30 34.09977 134.59222 4614 ft 154 kts 277°
2026-05-07 15:30 34.10219 134.57880 4990 ft 172 kts 279°
2026-05-07 15:30 34.10480 134.56428 5462 ft 185 kts 278°
2026-05-07 15:30 34.10738 134.54848 5908 ft 198 kts 277°
2026-05-07 15:31 34.11069 134.53246 6630 ft 193 kts 284°
2026-05-07 15:31 34.11444 134.51718 7265 ft 192 kts 279°
2026-05-07 15:31 34.11719 134.50080 7631 ft 208 kts 276°
2026-05-07 15:31 34.11977 134.48263 7951 ft 231 kts 279°
2026-05-07 15:32 34.12364 134.46342 8583 ft 239 kts 281°
2026-05-07 15:32 34.12760 134.44370 9250 ft 247 kts 280°
2026-05-07 15:32 34.13129 134.42273 9716 ft 264 kts 278°
2026-05-07 15:32 34.13476 134.40060 10224 ft 276 kts 277°
2026-05-07 15:33 34.13790 134.37738 10860 ft 284 kts 275°
2026-05-07 15:33 34.14189 134.35379 11523 ft 290 kts 281°
2026-05-07 15:33 34.14635 134.32995 12304 ft 292 kts 278°
2026-05-07 15:33 34.15057 134.30598 13153 ft 293 kts 279°
2026-05-07 15:34 34.15687 134.28256 13965 ft 295 kts 283°
2026-05-07 15:34 34.16179 134.25774 14088 ft 318 kts 278°
2026-05-07 15:34 34.16718 134.23067 13998 ft 339 kts 281°
2026-05-07 15:34 34.17363 134.20304 13990 ft 346 kts 282°
2026-05-07 15:35 34.18005 134.17465 13991 ft 357 kts 281°
2026-05-07 15:35 34.18427 134.15458 13996 ft 374 kts 281°
2026-05-07 15:35 34.19071 134.12352 14007 ft 397 kts 281°
2026-05-07 15:35 34.19776 134.09076 13999 ft 405 kts 282°
2026-05-07 15:36 34.20742 134.04663 14015 ft 407 kts 282°
2026-05-07 15:36 34.21213 134.02472 14025 ft 407 kts 281°
2026-05-07 15:36 34.21906 133.99162 14019 ft 405 kts 281°
2026-05-07 15:36 34.22576 133.95850 14014 ft 406 kts 281°
2026-05-07 15:37 34.23437 133.92596 13992 ft 411 kts 290°
2026-05-07 15:37 34.24793 133.89552 13987 ft 414 kts 299°
2026-05-07 15:37 34.26625 133.86834 13992 ft 420 kts 309°
2026-05-07 15:37 34.28675 133.84311 13996 ft 421 kts 310°
2026-05-07 15:38 34.30730 133.81794 14002 ft 418 kts 310°
2026-05-07 15:38 34.32778 133.79282 14003 ft 422 kts 310°
2026-05-07 15:38 34.34824 133.76751 13997 ft 420 kts 310°
2026-05-07 15:38 34.36868 133.74221 13996 ft 421 kts 310°
2026-05-07 15:39 34.38918 133.71689 13991 ft 422 kts 309°
2026-05-07 15:39 34.40973 133.69154 13976 ft 420 kts 310°
2026-05-07 15:39 34.43017 133.66628 13976 ft 421 kts 310°
2026-05-07 15:39 34.45056 133.64101 13901 ft 414 kts 310°
2026-05-07 15:40 34.47025 133.61668 13404 ft 397 kts 310°
2026-05-07 15:40 34.48932 133.59304 12795 ft 386 kts 310°
2026-05-07 15:40 34.50780 133.57008 12224 ft 375 kts 310°
2026-05-07 15:40 34.52564 133.54793 11710 ft 358 kts 310°
2026-05-07 15:41 34.54265 133.52684 11231 ft 341 kts 310°
2026-05-07 15:41 34.55882 133.50674 10821 ft 325 kts 310°
2026-05-07 15:41 34.57407 133.48777 10627 ft 303 kts 309°
2026-05-07 15:41 34.58840 133.46993 10485 ft 288 kts 309°
2026-05-07 15:42 34.60185 133.45318 10352 ft 274 kts 309°
2026-05-07 15:42 34.61488 133.43692 10223 ft 267 kts 309°
2026-05-07 15:42 34.62785 133.42065 10098 ft 270 kts 309°
2026-05-07 15:42 34.64117 133.40407 9864 ft 267 kts 309°
2026-05-07 15:43 34.65383 133.38823 9634 ft 263 kts 308°
2026-05-07 15:43 34.66295 133.36908 9303 ft 259 kts 285°
2026-05-07 15:43 34.66552 133.34805 9038 ft 255 kts 265°
2026-05-07 15:43 34.66158 133.32770 8844 ft 245 kts 246°
2026-05-07 15:44 34.65207 133.31053 8652 ft 249 kts 228°
2026-05-07 15:44 34.63811 133.29782 8453 ft 253 kts 215°
2026-05-07 15:44 34.62325 133.28639 8241 ft 253 kts 214°
2026-05-07 15:44 34.60848 133.27494 7969 ft 251 kts 215°
2026-05-07 15:45 34.59394 133.26343 7677 ft 248 kts 215°
2026-05-07 15:45 34.57956 133.25206 7370 ft 246 kts 215°
2026-05-07 15:45 34.56520 133.24072 7064 ft 246 kts 215°
2026-05-07 15:45 34.55088 133.22946 6758 ft 244 kts 215°
2026-05-07 15:46 34.52281 133.20738 6132 ft 238 kts 214°
2026-05-07 15:46 34.50895 133.19647 5807 ft 237 kts 214°
2026-05-07 15:46 34.49496 133.18548 5496 ft 245 kts 214°
2026-05-07 15:47 34.48030 133.17395 5194 ft 256 kts 214°
2026-05-07 15:47 34.46521 133.16212 4868 ft 259 kts 214°
2026-05-07 15:47 34.45056 133.14957 4482 ft 257 kts 223°
2026-05-07 15:47 34.44036 133.13210 4072 ft 252 kts 242°
2026-05-07 15:48 34.43590 133.11205 3724 ft 244 kts 262°
2026-05-07 15:48 34.43577 133.09181 3409 ft 236 kts 268°
2026-05-07 15:48 34.43596 133.07235 3125 ft 227 kts 267°
2026-05-07 15:48 34.43598 133.05335 2821 ft 221 kts 267°
2026-05-07 15:49 34.43602 133.03570 2766 ft 200 kts 267°
2026-05-07 15:49 34.43605 133.01975 2567 ft 182 kts 267°
2026-05-07 15:49 34.43606 133.00464 2229 ft 174 kts 268°
2026-05-07 15:49 34.43606 132.99040 1962 ft 162 kts 269°
2026-05-07 15:50 34.43600 132.97756 1741 ft 145 kts 269°
2026-05-07 15:50 34.43601 132.96552 1600 ft 142 kts 270°
2026-05-07 15:50 34.43606 132.95360 1407 ft 142 kts 271°
2026-05-07 15:50 34.43604 132.94163 1213 ft 143 kts 270°
2026-05-07 15:51 34.43602 132.92980 1103 ft 139 kts 270°
2026-05-07 15:51 34.43601 132.91962 1099 ft 91 kts 270°
2026-05-07 15:51 34.43600 132.91424 1099 ft 53 kts 270°
2026-05-07 15:51 34.43601 132.91035 1099 ft 28 kts 271°
2026-05-07 15:52 34.43638 132.90893 1100 ft 17 kts 319°
2026-05-07 15:52 34.43745 132.90892 1098 ft 15 kts 38°
2026-05-07 15:52 34.43770 132.91001 1099 ft 14 kts 89°
2026-05-07 15:52 34.43771 132.91123 1100 ft 14 kts 90°
2026-05-07 15:53 34.43771 132.91251 1099 ft 16 kts 90°
2026-05-07 15:53 34.43772 132.91406 1095 ft 20 kts 90°
2026-05-07 15:53 34.43773 132.91546 1094 ft 16 kts 89°
2026-05-07 15:53 34.43772 132.91680 1095 ft 16 kts 90°
2026-05-07 15:54 34.43772 132.91817 1093 ft 11 kts 89°
2026-05-07 15:54 34.43788 132.91849 1092 ft 5 kts 30°
2026-05-07 15:54 34.43841 132.91858 1090 ft 9 kts
2026-05-07 15:54 34.43875 132.91858 1087 ft 3 kts
2026-05-07 15:55 34.43884 132.91858 1086 ft 0 kts 360°